Location: Unspecified
(0.0000°N, 0.0000°E)
Time: 15:13:47
(UTC+00:00)

deb Delta 126 - Pass Details

Date: 20 February 2026
Orbit: 1502 x 2092 km, 101.9° (Epoch: 4 March)

Event Time Altitude Azimuth Distance (km) Brightness Sun altitude
Rises 03:53:52 0° 12° (NNE) 4,714 ? -34.2°
Reaches altitude 10° 03:56:36 10° 10° (N) 3,776 ? -33.6°
Maximum altitude 04:05:29 76° 286° (WNW) 1,741 ? -31.4°
Drops below altitude 10° 04:15:28 10° 201° (SSW) 4,204 ? -29.0°
Sets 04:18:41 0° 200° (SSW) 5,274 ? -28.2°
